Location: Bushey
(51.6333°N, 0.3667°W)
Time: 13:56:41
(UTC+00:00)

COSMOS 2428 - Pass Details

Date: 03 March 2021
Orbit: 846 x 857 km, 70.9° (Epoch: 11 April)

Event Time Altitude Azimuth Distance (km) Brightness Sun altitude
Rises 21:01:08 0° 217° (SW) 3,397 5.9 -30.1°
Reaches altitude 10° 21:03:36 10° 220° (SW) 2,466 5.2 -30.4°
Enters shadow 21:07:11 40° 234° (SW) 1,237 3.6 -30.9°
Exits shadow 21:13:54 16° 25° (NNE) 2,106 4.8 -31.7°
Drops below altitude 10° 21:14:56 10° 27° (NNE) 2,487 5.2 -31.8°
Sets 21:17:25 0° 31° (NNE) 3,428 5.9 -32.2°
